Header for Extended Forecast Station List Page

Search by: ID | Name | Date | Parm | Value | Avg | % Avg
Sort by: ID | Name | Date | Parm | Value | Avg | % Avg

Enter search or view all records.

Click on id for station plot
#IDNameDateParmValueAvg% Avg
0HWRI1BIG LOST-AT HOWELL RANCH NEAR CHILLY10-27-2014DISCHARGE (KAF)162079
1MACI1BIG LOST-MACKAY RESERVOIR NEAR MACKAY10-27-2014INFLOW (KAF)295572
2HALI1BIG WOOD-AT HAILEY10-27-2014DISCHARGE (KAF)313880
3MAGI1BIG WOOD-MAGIC DAM10-27-2014INFLOW (KAF)202870
4BITM8BITTERROOT-NEAR MISSOULA10-27-2014DISCHARGE (KAF)19822389
5BONM8BLACKFOOT-NEAR BONNER10-27-2014DISCHARGE (KAF)135133101
6BIGI1BOISE-AT GLENWOOD BRIDGE10-27-2014DISCHARGE (KAF)7436204
7LUCI1BOISE-LUCKY PEAK DAM10-27-2014INFLOW (KAF)93MM
8PARI1BOISE-NEAR PARMA10-27-2014DISCHARGE (KAF)226210108
9HOTI1BRUNEAU-NEAR HOT SPRINGS10-27-2014DISCHARGE (KAF)172961
10BULO3BULLY CREEK-BULLY CREEK DAM10-27-2014INFLOW (KAF)2362
11BUDW1BUMPING-BUMPING LAKE DAM10-27-2014INFLOW (KAF)3937106
12CHDW1CHELAN-LAKE CHELAN DAM10-27-2014INFLOW (KAF)404159255
13ABOM8CLARK FORK-ABOVE MISSOULA10-27-2014DISCHARGE (KAF)33033997
14DLGM8CLARK FORK-AT DEER LODGE10-27-2014DISCHARGE (KAF)556288
15SRGM8CLARK FORK-AT ST REGIS10-27-2014DISCHARGE (KAF)67674591
16BELM8CLARK FORK-BELOW MISSOULA10-27-2014DISCHARGE (KAF)52756793
17CABI1CLARK FORK-CABINET GORGE DAM10-27-2014INFLOW (KAF)3080369583
18NOXM8CLARK FORK-NOXON RAPIDS DAM10-27-2014INFLOW (KAF)2803354079
19DRMM8CLARK FORK-NR DRUMMOND10-27-2014DISCHARGE (KAF)134MM
20CLUW1CLE ELUM-CLE ELUM LAKE10-27-2014INFLOW (KAF)122106116
21ORFI1CLEARWATER-AT OROFINO10-27-2014DISCHARGE (KAF)44470463
22SPDI1CLEARWATER-AT SPALDING10-27-2014DISCHARGE (KAF)888168053
23COEI1COEUR D ALENE-COEUR D ALENE LAKE10-27-2014INFLOW (KAF)29474539
24CIBW1COLUMBIA-AT INTL BOUNDARY10-27-2014DISCHARGE (KAF)17939MM
25BONO3COLUMBIA-BONNEVILLE DAM10-27-2014INFLOW (KAF)31723MM
26CHJW1COLUMBIA-CHIEF JOSEPH DAM10-27-2014INFLOW (KAF)215592167699
27GCDW1COLUMBIA-GRAND COULEE DAM10-27-2014INFLOW (KAF)1876817242109
28JDAO3COLUMBIA-JOHN DAY DAM10-27-2014INFLOW (KAF)299973114196
29MCDW1COLUMBIA-MCNARY DAM10-27-2014INFLOW (KAF)287913004696
30PRWW1COLUMBIA-PRIEST RAPIDS DAM10-27-2014INFLOW (KAF)2305820266114
31RRHW1COLUMBIA-ROCKY REACH DAM10-27-2014INFLOW (KAF)2263222581100
32TDAO3COLUMBIA-THE DALLES DAM10-27-2014INFLOW (KAF)307353503388
33WANW1COLUMBIA-WANAPUM DAM10-27-2014INFLOW (KAF)2306519932116
34WELW1COLUMBIA-WELLS DAM10-27-2014INFLOW (KAF)2201022079100
35DEDI1DEADWOOD-NEAR LOWMAN10-27-2014INFLOW (KAF)181997
36MODO3DESCHUTES-AT MOODY NR BIGGS10-27-2014DISCHARGE (KAF)14221420100
37ARDW1ENTIAT-NEAR ARDENVOIR10-27-2014DISCHARGE (KAF)3822173
38CHEI1FALLS-NEAR CHESTER10-27-2014DISCHARGE (KAF)134113119
39CFMM8FLATHEAD-AT COLUMBIA FALLS10-27-2014DISCHARGE (KAF)919116879
40KERM8FLATHEAD-KERR DAM10-27-2014INFLOW (KAF)1085149473
41TRYO3GRANDE RONDE-TROY10-27-2014DISCHARGE (KAF)23132272
42REXI1HENRYS FORK-AT REXBURG10-27-2014DISCHARGE (KAF)41343096
43ANTI1HENRYS FORK-AT ST. ANTHONY10-27-2014DISCHARGE (KAF)30234288
44IPDI1HENRYS FORK-ISLAND PARK DAM10-27-2014INFLOW (KAF)8311572
45HODO3HOOD-NEAR TUCKER BRIDGE10-27-2014DISCHARGE (KAF)354241147
46SERO3JOHN DAY-AT SERVICE CK10-27-2014DISCHARGE (KAF)16122372
47KADW1KACHESS-KACHESS DAM10-27-2014INFLOW (KAF)454796
48LAUW1KETTLE-AT LAURIER10-27-2014DISCHARGE (KAF)194124157
49PITW1KLICKITAT-NEAR PITT10-27-2014DISCHARGE (KAF)338297114
50BFEI1KOOTENAI-AT BONNERS FERRY10-27-2014STAGE (FT)MMM
51LEOI1KOOTENAI-AT LEONIA10-27-2014DISCHARGE (KAF)28971473197
52LYDM8KOOTENAI-LIBBY DAM10-27-2014INFLOW (KAF)929863108
53LWRI1LITTLE WOOD-LITTLE WOOD DAM10-27-2014INFLOW (KAF)91561
54BERO3MALHEUR-AGENCY VALLEY DAM10-27-2014INFLOW (KAF)161789
55VALO3MALHEUR-NEAR VALE10-27-2014DISCHARGE (KAF)152951
56WRMO3MALHEUR-WARM SPRINGS DAM10-27-2014INFLOW (KAF)162564
57MYKO3MCKAY CREEK-NEAR PILOT ROCK10-27-2014DISCHARGE (KAF)171991
58PATW1METHOW-NEAR PATEROS10-27-2014DISCHARGE (KAF)11597118
59WGCM8MF FLATHEAD-NEAR WEST GLACIER10-27-2014DISCHARGE (KAF)15016392
60CLFW1NACHES-NEAR CLIFFDEL10-27-2014DISCHARGE (KAF)9910792
61NACW1NACHES-NEAR NACHES10-27-2014DISCHARGE (KAF)13882167
62DWRI1NF CLEARWATER-DWORSHAK DAM10-27-2014INFLOW (KAF)30153956
63FCFM8NF FLATHEAD-NEAR COLUMBIA FALLS10-27-2014DISCHARGE (KAF)186186101
64MONO3NF JOHN DAY-AT MONUMENT10-27-2014DISCHARGE (KAF)8712471
65CSDI1NF PAYETTE-CASCADE DAM10-27-2014INFLOW (KAF)749578
66TONW1OKANOGAN-NEAR TONASKET10-27-2014DISCHARGE (KAF)343283121
67OWYO3OWYHEE-BELOW OWYHEE DAM10-27-2014INFLOW (KAF)558962
68EMMI1PAYETTE-NEAR EMMETT10-27-2014DISCHARGE (KAF)25535672
69ALFW1PEND OREILLE-ALBENI FALLS DAM10-27-2014INFLOW (KAF)3220431375
70HOPI1PEND OREILLE-PEND OREILLE LAKE NR HOPE10-27-2014LAKE ELEVATION (FT)MMM
71PIHI1PORTNEUF-AT POCATELLO10-27-2014DISCHARGE (KAF)426466
72PRTI1PRIEST-NEAR PRIEST RIVER10-27-2014DISCHARGE (KAF)22622899
73RCCM8ROCK CREEK-NEAR CLINTON10-27-2014DISCHARGE (KAF)4848100
74WHBI1SALMON-AT WHITEBIRD10-27-2014DISCHARGE (KAF)1030106497
75ARAI1SF BOISE-ANDERSON RANCH DAM10-27-2014INFLOW (KAF)687590
76HHWM8SF FLATHEAD-HUNGRY HORSE DAM10-27-2014INFLOW (KAF)17924174
77PLDI1SF SNAKE-PALISADES DAM10-27-2014INFLOW (KAF)697616113
78SIFI1SNAKE-AB EAGLE ROCK NR IDAHO FALLS10-27-2014DISCHARGE (KAF)68181783
79AFRI1SNAKE-AMERICAN FALLS RESERVOIR10-27-2014INFLOW (KAF)1295148287
80SNAI1SNAKE-AT BLACKFOOT10-27-2014DISCHARGE (KAF)60974282
81MILI1SNAKE-AT MILNER10-27-2014DISCHARGE (KAF)12758922
82WEII1SNAKE-AT WEISER10-27-2014DISCHARGE (KAF)2467367267
83SWAI1SNAKE-BELOW SWAN FALLS10-27-2014DISCHARGE (KAF)1656257064
84BRNI1SNAKE-BROWNLEE DAM10-27-2014INFLOW (KAF)2652379670
85IHDW1SNAKE-ICE HARBOR DAM10-27-2014INFLOW (KAF)5048775765
86JLKW4SNAKE-JACKSON LAKE AT DAM10-27-2014INFLOW (KAF)10411492
87LGSW1SNAKE-LITTLE GOOSE DAM10-27-2014INFLOW (KAF)4972773364
88LGDW1SNAKE-LOWER GRANITE DAM10-27-2014INFLOW (KAF)4972768365
89LMNW1SNAKE-LOWER MONUMENTAL DAM10-27-2014INFLOW (KAF)5048784464
90ALPW4SNAKE-NEAR ALPINE10-27-2014DISCHARGE (KAF)479382126
91ANAW1SNAKE-NEAR ANATONE10-27-2014DISCHARGE (KAF)4084578571
92BFTI1SNAKE-NEAR BLACKFOOT10-27-2014DISCHARGE (KAF)61479278
93HEII1SNAKE-NEAR HEISE10-27-2014DISCHARGE (KAF)43257775
94JKSW4SNAKE-NEAR JACKSON10-27-2014DISCHARGE (KAF)397305130
95SHYI1SNAKE-NEAR SHELLEY10-27-2014DISCHARGE (KAF)68580885
96LLKW1SPOKANE-AT LONGLAKE10-27-2014INFLOW (KAF)542121745
97SPOW1SPOKANE-AT SPOKANE10-27-2014DISCHARGE (KAF)351MM
98SJMI1ST JOE-AT ST MARIES10-27-2014STAGE (FT)MMM
99SATI1ST MARIES-NEAR SANTA10-27-2014DISCHARGE (KAF)153741
100STRM8ST. REGIS-NEAR ST. REGIS10-27-2014DISCHARGE (KAF)203950
101TNAW1TEANAWAY-BELOW FORKS10-27-2014DISCHARGE (KAF)344281
102TEAI1TETON-NEAR ST. ANTHONY10-27-2014DISCHARGE (KAF)9910198
103RILW1TIETON-RIMROCK LAKE NEAR RIMROCK10-27-2014INFLOW (KAF)536877
104PDTO3UMATILLA-AT PENDLETON10-27-2014DISCHARGE (KAF)668776
105GIBO3UMATILLA-NEAR GIBBON10-27-2014DISCHARGE (KAF)233665
106UMAO3UMATILLA-NEAR UMATILLA10-27-2014DISCHARGE (KAF)10892118
107TCHW1WALLA WALLA-NEAR TOUCHET10-27-2014DISCHARGE (KAF)11813091
108WSRI1WEISER-NEAR WEISER10-27-2014DISCHARGE (KAF)389042
109PESW1WENATCHEE-AT PESHASTIN10-27-2014DISCHARGE (KAF)448303148
110UNDW1WHITE SALMON-NEAR UNDERWOOD10-27-2014DISCHARGE (KAF)311248126
111RIDI1WILLOW CREEK-RIRIE DAM10-27-2014INFLOW (KAF)6873
112EASW1YAKIMA-AT EASTON10-27-2014DISCHARGE (KAF)8770124
113KIOW1YAKIMA-AT KIONA10-27-2014DISCHARGE (KAF)66972093
114UMTW1YAKIMA-AT UMTANUM10-27-2014DISCHARGE (KAF)286255112
115KEDW1YAKIMA-KEECHELUS LAKE10-27-2014INFLOW (KAF)5852110
116PARW1YAKIMA-NEAR PARKER10-27-2014DISCHARGE (KAF)42648887